Meteo orario Goksuv

Oggi, 16 Aprile, Venerdi

Tempo Temperatura Precipitazioni Vento Pressione Umidità
00:00 +14°C° 0 mm 2 m/s 759 mm Hg 54%
01:00 +14°C° 0 mm 2 m/s 759 mm Hg 55%
02:00 +13°C° 0 mm 2 m/s 759 mm Hg 57%
03:00 +13°C° 0 mm 2 m/s 759 mm Hg 59%
04:00 +13°C° 0 mm 2 m/s 760 mm Hg 60%
05:00 +13°C° 0 mm 2 m/s 760 mm Hg 62%
06:00 +13°C° 0 mm 2 m/s 760 mm Hg 63%
07:00 +15°C° 0 mm 2 m/s 760 mm Hg 58%
08:00 +17°C° 0 mm 2 m/s 760 mm Hg 52%
09:00 +19°C° 0 mm 2 m/s 760 mm Hg 46%
10:00 +20°C° 0 mm 2 m/s 760 mm Hg 44%
11:00 +21°C° 0 mm 2 m/s 760 mm Hg 41%
12:00 +23°C° 0 mm 2 m/s 760 mm Hg 38%
13:00 +22°C° 0 mm 3 m/s 759 mm Hg 38%
14:00 +23°C° 0 mm 4 m/s 759 mm Hg 38%
15:00 +23°C° 0 mm 4 m/s 759 mm Hg 38%
16:00 +21°C° 0 mm 4 m/s 759 mm Hg 43%
17:00 +20°C° 0 mm 4 m/s 759 mm Hg 47%
18:00 +18°C° 0 mm 4 m/s 759 mm Hg 52%
19:00 +17°C° 0 mm 4 m/s 759 mm Hg 54%
20:00 +16°C° 0 mm 3 m/s 759 mm Hg 56%
21:00 +14°C° 0 mm 3 m/s 759 mm Hg 58%
22:00 +15°C° 0 mm 2 m/s 759 mm Hg 59%
23:00 +15°C° 0 mm 2 m/s 759 mm Hg 60%

Domani, 17 Aprile, Sabato

Tempo Temperatura Precipitazioni Vento Pressione Umidità
00:00 +14°C° 0 mm 2 m/s 759 mm Hg 61%
01:00 +14°C° 0 mm 2 m/s 759 mm Hg 63%
02:00 +14°C° 0 mm 2 m/s 759 mm Hg 64%
03:00 +13°C° 0 mm 2 m/s 759 mm Hg 66%
04:00 +14°C° 0 mm 2 m/s 759 mm Hg 66%
05:00 +13°C° 0 mm 3 m/s 759 mm Hg 66%
06:00 +13°C° 0 mm 3 m/s 759 mm Hg 66%
07:00 +16°C° 0 mm 3 m/s 758 mm Hg 58%
08:00 +19°C° 0 mm 4 m/s 758 mm Hg 51%
09:00 +21°C° 0 mm 4 m/s 758 mm Hg 43%
10:00 +22°C° 0 mm 4 m/s 758 mm Hg 42%
11:00 +23°C° 0 mm 4 m/s 758 mm Hg 41%
12:00 +25°C° 0 mm 4 m/s 758 mm Hg 40%
13:00 +23°C° 0 mm 4 m/s 758 mm Hg 42%
14:00 +23°C° 0 mm 4 m/s 758 mm Hg 43%
15:00 +23°C° 0 mm 4 m/s 758 mm Hg 45%
16:00 +21°C° 0 mm 3 m/s 759 mm Hg 50%
17:00 +20°C° 0 mm 3 m/s 759 mm Hg 56%
18:00 +18°C° 0 mm 2 m/s 760 mm Hg 62%
19:00 +17°C° 0 mm 3 m/s 760 mm Hg 63%
20:00 +17°C° 0 mm 4 m/s 761 mm Hg 64%
21:00 +15°C° 0 mm 5 m/s 761 mm Hg 65%
22:00 +15°C° 0 mm 5 m/s 761 mm Hg 67%
23:00 +15°C° 0 mm 5 m/s 761 mm Hg 70%

Dopodomani, 18 Aprile, Domenica

Tempo Temperatura Precipitazioni Vento Pressione Umidità
00:00 +15°C° 0 mm 5 m/s 761 mm Hg 72%
01:00 +14°C° 0 mm 4 m/s 761 mm Hg 75%
02:00 +14°C° 0 mm 4 m/s 761 mm Hg 77%
03:00 +14°C° 0 mm 3 m/s 761 mm Hg 80%
04:00 +13°C° 0 mm 3 m/s 761 mm Hg 80%
05:00 +14°C° 0 mm 2 m/s 762 mm Hg 80%
06:00 +13°C° 0 mm 1 m/s 762 mm Hg 80%
07:00 +15°C° 0 mm 1 m/s 761 mm Hg 74%
08:00 +16°C° 0 mm 1 m/s 761 mm Hg 68%
09:00 +18°C° 0 mm 1 m/s 761 mm Hg 61%
10:00 +18°C° 0 mm 2 m/s 760 mm Hg 57%
11:00 +19°C° 0 mm 3 m/s 759 mm Hg 52%
12:00 +21°C° 0 mm 4 m/s 759 mm Hg 47%
13:00 +21°C° 0 mm 4 m/s 758 mm Hg 46%
14:00 +21°C° 0 mm 5 m/s 758 mm Hg 45%
15:00 +21°C° 0 mm 5 m/s 758 mm Hg 43%
16:00 +20°C° 0.1 mm 5 m/s 758 mm Hg 47%
17:00 +18°C° 0.1 mm 4 m/s 758 mm Hg 52%
18:00 +17°C° 0.1 mm 4 m/s 758 mm Hg 56%
19:00 +16°C° 0.3 mm 3 m/s 758 mm Hg 63%
20:00 +16°C° 0.3 mm 2 m/s 759 mm Hg 69%
21:00 +15°C° 0.3 mm 1 m/s 759 mm Hg 75%
22:00 +15°C° 0.1 mm 1 m/s 759 mm Hg 76%
23:00 +15°C° 0.1 mm 1 m/s 759 mm Hg 77%

19 Aprile, Lunedi

Tempo Temperatura Precipitazioni Vento Pressione Umidità
00:00 +15°C° 0.1 mm 1 m/s 759 mm Hg 78%
01:00 +15°C° 0 mm 1 m/s 759 mm Hg 78%
02:00 +14°C° 0 mm 1 m/s 759 mm Hg 78%
03:00 +14°C° 0 mm 1 m/s 759 mm Hg 78%
04:00 +14°C° 0 mm 1 m/s 759 mm Hg 77%
05:00 +15°C° 0 mm 1 m/s 759 mm Hg 75%
06:00 +15°C° 0 mm 1 m/s 759 mm Hg 74%
07:00 +16°C° 0 mm 1 m/s 759 mm Hg 69%
08:00 +19°C° 0 mm 1 m/s 759 mm Hg 63%
09:00 +19°C° 0 mm 2 m/s 759 mm Hg 58%
10:00 +20°C° 0 mm 2 m/s 759 mm Hg 54%
11:00 +22°C° 0 mm 3 m/s 759 mm Hg 50%
12:00 +24°C° 0 mm 3 m/s 758 mm Hg 46%
13:00 +23°C° 0 mm 4 m/s 758 mm Hg 45%
14:00 +23°C° 0 mm 5 m/s 758 mm Hg 44%
15:00 +23°C° 0 mm 5 m/s 757 mm Hg 43%
16:00 +22°C° 0 mm 5 m/s 757 mm Hg 47%
17:00 +20°C° 0 mm 5 m/s 757 mm Hg 52%
18:00 +18°C° 0 mm 4 m/s 757 mm Hg 56%
19:00 +18°C° 0 mm 4 m/s 757 mm Hg 59%
20:00 +17°C° 0 mm 4 m/s 757 mm Hg 61%
21:00 +15°C° 0 mm 4 m/s 757 mm Hg 63%
22:00 +15°C° 0 mm 4 m/s 757 mm Hg 64%
23:00 +15°C° 0 mm 5 m/s 756 mm Hg 64%

20 Aprile, Martedi

Tempo Temperatura Precipitazioni Vento Pressione Umidità
00:00 +14°C° 0 mm 5 m/s 756 mm Hg 65%
01:00 +14°C° 0 mm 5 m/s 755 mm Hg 65%
02:00 +14°C° 0 mm 5 m/s 755 mm Hg 66%
03:00 +14°C° 0 mm 5 m/s 754 mm Hg 66%
04:00 +15°C° 0 mm 5 m/s 754 mm Hg 64%
05:00 +15°C° 0 mm 5 m/s 753 mm Hg 63%
06:00 +15°C° 0 mm 5 m/s 753 mm Hg 61%
07:00 +17°C° 0 mm 5 m/s 753 mm Hg 58%
08:00 +19°C° 0 mm 6 m/s 752 mm Hg 55%
09:00 +21°C° 0 mm 6 m/s 752 mm Hg 52%
10:00 +22°C° 0 mm 7 m/s 751 mm Hg 50%
11:00 +23°C° 0 mm 8 m/s 751 mm Hg 47%
12:00 +24°C° 0 mm 9 m/s 750 mm Hg 44%
13:00 +24°C° 0 mm 9 m/s 750 mm Hg 44%
14:00 +26°C° 0 mm 9 m/s 749 mm Hg 43%
15:00 +26°C° 0 mm 9 m/s 749 mm Hg 42%
16:00 +23°C° 0 mm 8 m/s 749 mm Hg 48%
17:00 +21°C° 0 mm 8 m/s 748 mm Hg 55%
18:00 +18°C° 0 mm 7 m/s 748 mm Hg 61%
19:00 +19°C° 0.2 mm 6 m/s 750 mm Hg 64%
20:00 +17°C° 0.2 mm 5 m/s 751 mm Hg 68%
21:00 +18°C° 0.2 mm 4 m/s 752 mm Hg 72%
22:00 +16°C° 0.1 mm 6 m/s 754 mm Hg 74%
23:00 +16°C° 0.1 mm 9 m/s 755 mm Hg 76%

21 Aprile, Mercoledi

Tempo Temperatura Precipitazioni Vento Pressione Umidità
00:00 +14°C° 0.1 mm 11 m/s 756 mm Hg 78%
01:00 +14°C° 0.1 mm 11 m/s 757 mm Hg 78%
02:00 +13°C° 0.1 mm 10 m/s 758 mm Hg 78%
03:00 +13°C° 0.1 mm 10 m/s 759 mm Hg 79%
04:00 +13°C° 0.1 mm 9 m/s 759 mm Hg 76%
05:00 +13°C° 0.1 mm 8 m/s 760 mm Hg 73%
06:00 +14°C° 0.1 mm 7 m/s 760 mm Hg 69%
07:00 +15°C° 0 mm 6 m/s 760 mm Hg 65%
08:00 +16°C° 0 mm 6 m/s 760 mm Hg 60%
09:00 +16°C° 0 mm 6 m/s 761 mm Hg 55%
10:00 +17°C° 0 mm 6 m/s 761 mm Hg 53%
11:00 +17°C° 0 mm 6 m/s 761 mm Hg 51%
12:00 +19°C° 0 mm 5 m/s 760 mm Hg 49%
13:00 +19°C° 0 mm 5 m/s 760 mm Hg 49%
14:00 +19°C° 0 mm 5 m/s 760 mm Hg 48%
15:00 +20°C° 0 mm 5 m/s 760 mm Hg 48%
16:00 +19°C° 0 mm 4 m/s 760 mm Hg 52%
17:00 +18°C° 0 mm 3 m/s 761 mm Hg 56%
18:00 +17°C° 0 mm 3 m/s 761 mm Hg 60%
19:00 +16°C° 0.2 mm 2 m/s 761 mm Hg 65%
20:00 +15°C° 0.2 mm 2 m/s 761 mm Hg 69%
21:00 +15°C° 0.2 mm 2 m/s 762 mm Hg 74%
22:00 +14°C° 0 mm 2 m/s 762 mm Hg 73%
23:00 +14°C° 0 mm 2 m/s 762 mm Hg 72%
Mostrare altro

Abbiamo bisogno del tuo consenso

Meteoprog e i nostri fornitori di servizi possono memorizzare e accedere a dati personali come cookie, identificatori di dispositivi o altre tecnologie simili sul tuo dispositivo e possono elaborare tali dati per personalizzare i contenuti e gli annunci, nonché fornire funzionalità dei social media e analizzarne il traffico.

  • Archiviare e/o accedere alle informazioni sul tuo dispositivo

    Cookie, identificatori di dispositivi o altre informazioni possono essere memorizzati o resi accessibili sul tuo dispositivo per le finalità sopra indicate.

  • Annunci e contenuti personalizzati, misurazione di annunci e contenuti, approfondimenti sul pubblico e sviluppo di prodotti

    Gli annunci e i contenuti possono essere personalizzati in base a un profilo. È possibile aggiungere più dati per personalizzare meglio annunci e contenuti. È possibile misurare il rendimento degli annunci e dei contenuti. È possibile ricavare informazioni sul pubblico che ha visto gli annunci e i contenuti. Tali dati possono essere utilizzati per sviluppare o migliorare l'esperienza, i sistemi e il software dell'utente.

Cliccando su “Accetto”, acconsenti all'uso di cookie, identificatori di dispositivo, web beacon o altre tecnologie simili. Puoi modificare le impostazioni nel browser del tuo dispositivo.

Per determinati scopi, è possibile fare affidamento su interessi legali, piuttosto che sul consenso. Puoi approfondire questo argomento consultando la nostra Informativa sulla privacy e sui cookie.